Showing default

HAWK-11A, 62382

Orbit data source: Space-Track

HAWK-11A, 62382 is a payload satellite owned by HawkEye 360 (US) in LEO that was launched on Sat, 21 Dec 2024 UTC via an FALCON 9 launch vehicle from the Air Force Western Test Range (AFWTR). Payload-class satellites include a variety of spacecraft equipped with specific instruments for various scientific and technological missions. These include communications satellites like Starlink; space stations such as the ISS; scientific satellites like the Hubble; Earth observation satellites from companies like Planet Labs, Umbra, and HawkEye 360; GPS; miniature CubeSats for education and research; and military/defense satellites.

Loading next visibility...
Identifier
62382, 2024-247F
Orbit
LEO
Country
Flag of USUS
Related business
Manufacturer
UTIAS-SFL
Mission
Operational Commercial Sigint
Bus & Motor
HAWK2G, Unknown motor
Mass
31 kg wet, 30 kg dry
Launch date (UTC)
2024-12-21 (8 months ago)
Launch vehicle
FALCON 9
Launch site
Air Force Western Test Range (AFWTR)
Object type
Payload
Rocket body
Debris
Shape & HBR
Box + 2 Pan, 0.5 m
Radar Cross Section
0.240 m², Medium (>0.1 m² and < 1m²)

Expand to show TLE details & history
Last TLE update: 1 day ago

TLE from 1 day ago
0 HAWK-11A
1 62382U 24247F   25240.89784810  .00009548  00000-0  38946-3 0  9997
2 62382  44.9830  84.7453 0004648 250.7813 109.2566 15.24738551 38304
Epoch: 2025-08-28T21:32Z
TLE epoch observation values (Epoch: 2025-08-28T21:32:54.075Z)
Latitude
-0.00003°
Longitude
144.16571°
Altitude
492.622 km
Speed
7.62 km/s
True Right ascension
05h 38m 58s
True Declination
0° 00' 00"
Sunlit
Object was in daylight at epoch
Visualization orbit readout
Latitude
Unknown
Longitude
Unknown
Altitude
Unknown
Speed
Unknown
Apparent Right ascension
Unknown
Apparent Declination
Unknown
Sunlit
N/A
Visualization observer readout
Local Sidereal Time
16:56:59
Azimuth
Unknown
Elevation
Unknown
Doppler factor
Unknown
Orbital elements
Apogee altitude
496.375 km
Perigee altitude
489.987 km
Semi-major axis
6,871.318 km
Eccentricity
0.00046
Inclination
44.983°
RAAN
84.7453°
Arg. of periapsis
250.7813°
True anomaly
109.30687°
Mean anomaly
109.2566°
Eccentric anomaly
109.28174°
Mean motion
3.81051 °/min
Orbital period
94.48 mins
BSTAR
0.00038946
Loading maneuver chart data...
Computing Atmospheric mass density...
Loading historical data...
Loading historical data...
Loading historical data...
Loading historical data...
Loading historical data...
Loading historical data...
Loading historical data...

Documentation

Showing up to 5 results
|